[[{"header":{"parameterUnit":"m.s-1","parameterCategory":1,"la1":30.2992,"la2":30.254,"lo1":-89.0895,"lo2":-89.0443,"dy":0.0025,"dx":0.0025,"nx":19,"ny":19,"refTime":"2026-04-11T03:00:00:Z","depth":0,"parameterNumber":2,"parameterNumberName":"U-component_of_WINDS"},"data":[0,0,0,-1.1811,-1.1811,-1.178,-1.178,-1.1754,-1.1754,0,0,0,0,0,0,0,0,0,0,0,-1.1829,-1.1829,-1.1811,-1.1811,-1.178,-1.178,-1.1754,-1.1754,0,0,0,0,0,0,0,0,0,0,0,-1.1829,-1.1829,-1.1829,-1.1811,-1.178,-1.178,-1.1754,-1.1772,0,0,0,0,0,0,0,0,0,0,-1.18,-1.1824,-1.1829,-1.1829,-1.1811,-1.178,-1.178,-1.1773,-1.1771,-1.1774,0,-1.1778,0,-1.1766,-1.1753,-1.1753,0,0,0,-1.1805,-1.1826,-1.181,-1.1829,-1.181,-1.178,-1.1792,-1.1772,-1.177,-1.1772,-1.1778,-1.1776,-1.1765,-1.1753,-1.1753,-1.179,-1.179,0,0,-1.1806,-1.1827,-1.1811,-1.1809,-1.1814,-1.1793,-1.1791,-1.177,-1.1779,-1.1778,-1.1776,-1.1765,-1.1753,-1.1753,-1.1789,-1.179,0,0,0,-1.1815,-1.1829,-1.1813,-1.1811,-1.1804,-1.1792,-1.179,-1.1779,-1.1773,-1.1775,-1.1765,-1.1753,-1.1753,-1.1789,-1.1789,-1.1833,0,0,0,-1.1816,-1.1834,-1.1814,-1.1827,-1.1805,-1.1791,-1.18,-1.1774,-1.1771,-1.1765,-1.1753,-1.1753,-1.1788,-1.1789,-1.1831,-1.1851,0,0,0,-1.1828,-1.1835,-1.1834,-1.1828,-1.1816,-1.1791,-1.1783,-1.1773,-1.1765,-1.1753,-1.1752,-1.1788,-1.1789,-1.1829,-1.1847,-1.1868,0,0,0,-1.1846,-1.1872,-1.1835,-1.186,-1.1816,-1.1818,-1.1783,-1.1783,-1.1778,-1.1753,-1.1788,-1.1789,-1.1828,-1.1845,-1.1866,-1.1889,-1.1901,0,0,-1.1891,-1.1878,-1.1892,-1.1857,-1.1872,-1.1821,-1.1842,-1.1817,-1.1797,-1.1793,-1.1794,-1.1832,-1.1847,-1.1867,-1.1957,-1.1967,0,0,0,-1.1913,-1.1923,-1.1922,-1.1919,-1.1901,-1.1887,-1.1857,-1.1848,-1.1844,-1.1799,-1.1843,-1.1852,-1.1863,-1.1873,-1.1881,-1.189,-1.1795,-1.1795,-1.1794,-1.2007,-1.1979,-1.2,-1.1969,-1.1966,-1.1936,-1.1931,-1.1914,-1.1886,-1.1897,-1.1896,-1.1954,-1.1967,-1.1973,-1.1983,-1.1906,-1.1906,-1.1906,-1.1906,-1.207,-1.2081,-1.2045,-1.2052,-1.2023,-1.2029,-1.2001,-1.1981,-1.1983,-1.1952,-1.1961,-1.193,-1.1984,-1.1991,-1.1909,-1.1909,-1.1908,-1.1908,-1.1908,-1.213,-1.213,-1.2119,-1.2112,-1.211,-1.2078,-1.2081,-1.2055,-1.203,-1.2038,-1.2035,-1.2034,-1.2031,-1.2038,-1.2038,-1.2039,-1.2039,-1.2039,-1.2039,-1.2196,-1.2182,-1.2188,-1.2172,-1.2167,-1.2157,-1.2128,-1.2122,-1.2109,-1.209,-1.2089,-1.2062,-1.1994,-1.1978,-1.2042,-1.2041,-1.2041,-1.2041,-1.2041,-1.2272,-1.2251,-1.2261,-1.2256,-1.2236,-1.2237,-1.2202,-1.2194,-1.2185,-1.2189,-1.2159,-1.2113,-1.2098,-1.2092,-1.2079,-1.2164,-1.2164,-1.2164,-1.2164,-1.2323,-1.2313,-1.2318,-1.2312,-1.2304,-1.2274,-1.2288,-1.2265,-1.2239,-1.2232,-1.2216,-1.2196,-1.219,-1.2179,-1.217,-1.2158,-1.2262,-1.2262,-1.2262,-1.237,-1.2358,-1.2374,-1.2348,-1.233,-1.2316,-1.2328,-1.2324,-1.2289,-1.2265,-1.2227,-1.2223,-1.219,-1.2181,-1.2156,-1.2144,-1.212,0,0]},{"header":{"parameterUnit":"m.s-1","parameterCategory":1,"la1":30.2992,"la2":30.254,"lo1":-89.0895,"lo2":-89.0443,"dy":0.0025,"dx":0.0025,"nx":19,"ny":19,"refTime":"2026-04-11T03:00:00:Z","depth":0,"parameterNumber":3,"parameterNumberName":"V-component_of_WINDS"},"data":[0,0,0,2.0446,2.0446,2.0451,2.0451,2.0448,2.0448,0,0,0,0,0,0,0,0,0,0,0,2.0441,2.0441,2.0446,2.0446,2.0451,2.0451,2.0448,2.0448,0,0,0,0,0,0,0,0,0,0,0,2.0441,2.0441,2.0441,2.0446,2.0451,2.0451,2.0448,2.0448,0,0,0,0,0,0,0,0,0,0,2.0445,2.0436,2.0441,2.0441,2.0446,2.0451,2.0451,2.0448,2.0448,2.0443,0,2.0439,0,2.0444,2.0448,2.0448,0,0,0,2.0449,2.0436,2.0441,2.0441,2.0446,2.0451,2.0449,2.0448,2.0448,2.0443,2.0439,2.0439,2.0444,2.0448,2.0448,2.0416,2.0415,0,0,2.0449,2.0439,2.0441,2.0441,2.0441,2.0449,2.045,2.0448,2.0442,2.0439,2.0439,2.0444,2.0448,2.0448,2.0416,2.0416,0,0,0,2.0446,2.0439,2.0444,2.0441,2.0442,2.0449,2.045,2.0442,2.0445,2.0439,2.0444,2.0448,2.0447,2.0416,2.0416,2.0393,0,0,0,2.0446,2.0437,2.0444,2.0438,2.0442,2.0443,2.0444,2.0445,2.0445,2.0444,2.0448,2.0447,2.0417,2.0416,2.0395,2.0384,0,0,0,2.0442,2.0437,2.0436,2.0438,2.0439,2.0443,2.0445,2.0445,2.0448,2.0448,2.0447,2.0417,2.0416,2.0396,2.0386,2.0373,0,0,0,2.0434,2.0416,2.0436,2.0417,2.0439,2.0429,2.0446,2.0438,2.0436,2.0448,2.0417,2.0416,2.0396,2.0387,2.0374,2.036,2.0353,0,0,2.0405,2.0412,2.0401,2.042,2.0404,2.043,2.041,2.0416,2.0424,2.0418,2.0417,2.0394,2.0386,2.0373,2.0321,2.0315,0,0,0,2.0389,2.0381,2.0379,2.0377,2.0382,2.0385,2.0395,2.0398,2.0393,2.0419,2.0387,2.0382,2.0375,2.0368,2.0364,2.0358,2.0413,2.0413,2.0413,2.0333,2.0346,2.033,2.0343,2.034,2.0352,2.0351,2.0356,2.0368,2.036,2.0358,2.0325,2.0317,2.0314,2.0308,2.0352,2.0352,2.0352,2.0352,2.0292,2.0283,2.0301,2.0292,2.0305,2.0297,2.0308,2.0317,2.0311,2.0327,2.0322,2.0338,2.0308,2.0303,2.0351,2.0351,2.0351,2.0351,2.0351,2.0256,2.0254,2.0258,2.0257,2.0255,2.0269,2.0263,2.0275,2.0286,2.028,2.0279,2.028,2.0281,2.0279,2.0279,2.0279,2.0279,2.0279,2.0279,2.0217,2.0223,2.0217,2.0222,2.0222,2.0224,2.0237,2.0237,2.0241,2.025,2.025,2.0263,2.0303,2.0312,2.0277,2.0277,2.0278,2.0278,2.0278,2.0169,2.0182,2.0173,2.0173,2.018,2.0177,2.0194,2.0194,2.0196,2.0193,2.0208,2.0235,2.0242,2.0246,2.0254,2.0205,2.0205,2.0205,2.0205,2.0138,2.0144,2.0137,2.0138,2.014,2.0154,2.0142,2.0152,2.0163,2.0165,2.0174,2.0186,2.0189,2.0194,2.0199,2.0206,2.0147,2.0147,2.0147,2.0109,2.0116,2.0104,2.0116,2.0123,2.0128,2.0118,2.0117,2.0133,2.0145,2.0167,2.017,2.0189,2.0194,2.0206,2.0213,2.0227,0,0]}]]